Crossville, TN

6:01 PM CDT on May 24, 2017 (GMT -0500)
Crossville Memorial-Whitson

Weather History for KCSV - February, 2014

Change the Weather History Date:

Friday, February 21, 2014

  Actual Average Record
Temperature  
Mean Temperature 46 °F 41 °F  
Max Temperature 57 °F 50 °F 69 °F (1981)
Min Temperature 34 °F 32 °F 0 °F (1963)
Degree Days  
Heating Degree Days 20    
Month to date heating degree days  
Since 1 July heating degree days  
Cooling Degree Days 0    
Month to date cooling degree days  
Year to date cooling degree days  
Moisture  
Dew Point 33 °F    
Average Humidity 70    
Maximum Humidity 94    
Minimum Humidity 27    
Precipitation  
Precipitation 0.64 in 0.16 in 1.45 in (1974)
Month to date precipitation 3.34  
Year to date precipitation 8.10  
Sea Level Pressure  
Sea Level Pressure 29.94 in    
Wind  
Wind Speed 10 mph (West)    
Max Wind Speed 23 mph    
Max Gust Speed 40 mph    
Visibility 8 miles    
Events Rain , Thunderstorm    
T = Trace of Precipitation, MM = Missing Value Source: NWS Daily Summary

Daily Weather History Graph

Daily Weather History Graph

Search for Another Location

Airport or City:

Trip Planner

Search our weather history database for the weather conditions in past years. The results will help you decide how hot, cold, wet, or windy it might be!

Date:

Astronomy

Feb. 21, 2014 Rise Set
Actual Time 6:20 AM CST 5:27 PM CST
Civil Twilight 5:54 AM CST 5:53 PM CST
Nautical Twilight 5:24 AM CST 6:23 PM CST
Astronomical Twilight 4:55 AM CST 6:53 PM CST
Moon No Moon Rise 9:56 AM CST (2/21)
Length of Visible Light 11h 59m
Length of Day
11h 07m
Waning Gibbous, 60% of the Moon is Illuminated
Feb 21
Waning Gibbous
Feb 22
Last Quarter
Mar 1
New
Mar 8
First Quarter
Mar 16
Full

Hourly Weather History & Observations

Time (CST) Temp. Windchill Dew Point Humidity Pressure Visibility Wind Dir Wind Speed Gust Speed Precip Events Conditions
12:04 AM 57.2 °F - 55.4 °F 94% 29.77 in 3.0 mi SW 11.5 mph 31.1 mph 0.04 in Rain Rain
12:20 AM 57.2 °F - 55.4 °F 94% 29.76 in 3.0 mi South 12.7 mph 19.6 mph 0.11 in Rain , Thunderstorm Rain
12:29 AM 55.4 °F - 53.6 °F 94% 29.75 in 2.5 mi SSW 8.1 mph 19.6 mph 0.16 in Rain Rain
12:39 AM 55.4 °F - 53.6 °F 94% 29.76 in 2.5 mi West 8.1 mph 20.7 mph 0.22 in Rain , Thunderstorm Heavy Thunderstorms and Rain
12:53 AM 55.9 °F - 54.0 °F 93% 29.76 in 2.5 mi WSW 12.7 mph 19.6 mph 0.31 in Rain , Thunderstorm Thunderstorms and Rain
12:55 AM 55.4 °F - 53.6 °F 94% 29.80 in 1.5 mi WSW 23.0 mph 40.3 mph 0.09 in Rain Heavy Rain
1:10 AM 48.2 °F - 46.4 °F 93% 29.81 in 3.0 mi WNW 13.8 mph 26.5 mph 0.18 in Rain Rain
1:21 AM 48.2 °F - 46.4 °F 93% 29.81 in 7.0 mi NW 10.4 mph 20.7 mph 0.19 in Rain Light Rain
1:53 AM 46.9 °F - 45.0 °F 93% 29.84 in 4.0 mi West 18.4 mph 25.3 mph 0.23 in Rain Rain
2:02 AM 46.4 °F 39.2 °F 44.6 °F 93% 29.85 in 3.0 mi West 18.4 mph 27.6 mph 0.04 in Rain Rain
2:40 AM 42.8 °F 34.8 °F 39.2 °F 87% 29.87 in 7.0 mi WNW 17.3 mph 27.6 mph 0.06 in Rain Light Rain
2:48 AM 42.8 °F 35.8 °F 39.2 °F 87% 29.87 in 9.0 mi WNW 13.8 mph 28.8 mph 0.06 in Rain Light Rain
2:53 AM 42.1 °F 36.6 °F 39.0 °F 89% 29.86 in 7.0 mi NW 9.2 mph 27.6 mph 0.07 in Rain Light Rain
3:53 AM 39.0 °F 32.3 °F 36.0 °F 89% 29.88 in 10.0 mi WNW 10.4 mph - 0.03 in   Overcast
4:53 AM 37.9 °F 32.7 °F 35.1 °F 89% 29.91 in 10.0 mi WNW 6.9 mph - N/A   Overcast
5:53 AM 37.0 °F 33.3 °F 35.1 °F 93% 29.94 in 10.0 mi WSW 4.6 mph - N/A   Clear
6:53 AM 36.0 °F - 34.0 °F 93% 29.97 in 10.0 mi Calm Calm - N/A   Clear
7:11 AM 35.6 °F - 33.8 °F 93% 29.98 in 1.8 mi Calm Calm - N/A   Clear
7:18 AM 35.6 °F 32.8 °F 33.8 °F 93% 29.99 in 3.0 mi SW 3.5 mph - N/A   Clear
7:53 AM 39.0 °F 34.0 °F 34.0 °F 82% 29.99 in 10.0 mi WSW 6.9 mph - N/A   Clear
8:53 AM 42.1 °F 35.7 °F 30.9 °F 65% 30.00 in 10.0 mi West 11.5 mph 20.7 mph N/A   Clear
9:53 AM 45.0 °F 41.8 °F 30.0 °F 56% 29.99 in 10.0 mi Variable 5.8 mph 19.6 mph N/A   Clear
10:53 AM 46.0 °F 41.4 °F 23.0 °F 40% 29.99 in 10.0 mi West 9.2 mph 18.4 mph N/A   Clear
11:53 AM 46.9 °F - 24.1 °F 41% 29.99 in 10.0 mi West 11.5 mph 21.9 mph N/A   Clear
12:53 PM 46.9 °F - 23.0 °F 39% 29.99 in 10.0 mi West 11.5 mph 17.3 mph N/A   Clear
1:53 PM 48.0 °F - 21.9 °F 36% 30.00 in 10.0 mi West 8.1 mph 17.3 mph N/A   Clear
2:53 PM 48.0 °F - 18.0 °F 30% 30.03 in 10.0 mi West 13.8 mph 21.9 mph N/A   Clear
3:53 PM 48.0 °F - 15.1 °F 27% 30.05 in 10.0 mi West 10.4 mph 17.3 mph N/A   Clear
4:53 PM 46.0 °F 41.9 °F 15.1 °F 29% 30.05 in 10.0 mi West 8.1 mph - N/A   Clear
5:53 PM 43.0 °F 41.3 °F 14.0 °F 31% 30.07 in 10.0 mi WSW 3.5 mph - N/A   Clear
6:53 PM 39.0 °F - 17.1 °F 41% 30.09 in 10.0 mi Calm Calm - N/A   Clear
7:53 PM 37.0 °F - 17.1 °F 44% 30.09 in 10.0 mi Calm Calm - N/A   Clear
8:53 PM 36.0 °F 33.3 °F 18.0 °F 48% 30.11 in 10.0 mi SW 3.5 mph - N/A   Clear
9:53 PM 34.0 °F - 19.9 °F 56% 30.12 in 10.0 mi Calm Calm - N/A   Clear
10:53 PM 35.1 °F 32.2 °F 18.0 °F 50% 30.12 in 10.0 mi WSW 3.5 mph - N/A   Clear
11:53 PM 36.0 °F - 19.0 °F 50% 30.10 in 10.0 mi Calm Calm - N/A   Clear